Date String (YYYY-MM-DD hh:mm:ss) UTC,Instrument flags,Ambient pressure (hPa),Sample flow (lpm),Bypass flow (lpm),Sample temperature (°C),Ambient temperature (°C),ASC tube jacket temperature (°C),LED temperature (°C),Box temperature (°C),Sample RH (%),Span deviation,Mass concentration (μg/m³),Mass concentration (μg/m³),Mass concentration (μg/m³)
DateTimeUTC,F1_M11,P_M11,Q1_M11,Q2_M11,T1_M11,T2_M11,T3_M11,T4_M11,T5_M11,U1_M11,ZSPAN_M11,X0_M11,X2_M11,X1_M11
2022-12-27 20:00:00,,0811.0,5.00,0.00,24.5,23.2,00.0,33.3,26.4,09.7,0000.0,0001.74,0000.37,0000.19
2022-12-27 20:01:00,,0810.9,5.00,0.00,24.5,23.2,00.0,33.3,26.3,09.5,0000.0,0001.53,0000.33,0000.18
2022-12-27 20:02:00,,0810.7,5.00,0.00,24.5,23.2,00.0,33.3,26.3,09.8,0000.0,0001.53,0000.34,0000.18
2022-12-27 20:03:00,,0810.4,4.99,0.00,24.5,23.2,00.0,33.3,26.4,10.3,0000.0,0001.63,0000.35,0000.18
2022-12-27 20:04:00,,0810.5,5.00,0.00,24.5,23.2,00.0,33.3,26.3,09.6,0000.0,0001.48,0000.33,0000.17
2022-12-27 20:05:00,,0810.5,5.01,0.00,24.5,23.2,00.0,33.3,26.3,09.0,0000.0,0000.72,0000.29,0000.17
2022-12-27 20:06:00,,0810.6,5.01,0.00,24.5,23.2,00.0,33.3,26.3,09.1,0000.0,0000.58,0000.28,0000.16
2022-12-27 20:07:00,,0810.5,5.00,0.00,24.5,23.2,00.0,33.3,26.3,09.3,0000.0,0000.56,0000.27,0000.16
2022-12-27 20:08:00,,0810.5,4.99,0.00,24.5,23.2,00.0,33.3,26.3,09.4,0000.0,0000.59,0000.26,0000.16
2022-12-27 20:09:00,,0810.3,4.98,0.00,24.5,23.2,00.0,33.3,26.3,09.9,0000.0,0000.57,0000.25,0000.15
2022-12-27 20:10:00,,0810.5,5.00,0.00,24.5,23.1,00.0,33.3,26.3,09.3,0000.0,0000.56,0000.24,0000.15
2022-12-27 20:11:00,,0810.5,5.00,0.00,24.5,23.1,00.0,33.3,26.3,09.0,0000.0,0000.52,0000.23,0000.15
2022-12-27 20:12:00,,0810.3,5.00,0.00,24.5,23.2,00.0,33.3,26.3,09.4,0000.0,0000.50,0000.22,0000.15
2022-12-27 20:13:00,,0810.3,5.01,0.00,24.5,23.2,00.0,33.3,26.3,09.4,0000.0,0000.47,0000.21,0000.14
2022-12-27 20:14:00,,0810.2,5.00,0.00,24.5,23.2,00.0,33.3,26.3,10.0,0000.0,0000.33,0000.19,0000.14
2022-12-27 20:15:00,,0810.1,5.00,0.00,24.5,23.2,00.0,33.3,26.4,09.4,0000.0,0000.30,0000.18,0000.14
2022-12-27 20:16:00,,0810.0,5.00,0.00,24.5,23.1,00.0,33.3,26.3,09.8,0000.0,0000.30,0000.18,0000.14
2022-12-27 20:17:00,,0810.0,4.99,0.00,24.5,23.1,00.0,33.3,26.3,09.9,0000.0,0000.29,0000.18,0000.15
2022-12-27 20:18:00,,0810.0,5.00,0.00,24.5,23.1,00.0,33.3,26.3,09.3,0000.0,0000.30,0000.19,0000.15
2022-12-27 20:19:00,,0810.1,5.00,0.00,24.5,23.1,00.0,33.3,26.3,09.4,0000.0,0000.28,0000.18,0000.15
2022-12-27 20:20:00,,0810.2,5.00,0.00,24.5,23.1,00.0,33.3,26.3,10.0,0000.0,0000.53,0000.19,0000.15
2022-12-27 20:21:00,,0810.0,5.00,0.00,24.5,23.1,00.0,33.3,26.3,09.9,0000.0,0000.71,0000.20,0000.15
2022-12-27 20:22:00,,0810.0,5.01,0.00,24.5,23.1,00.0,33.3,26.3,09.5,0000.0,0000.71,0000.20,0000.15
2022-12-27 20:23:00,,0809.9,5.00,0.00,24.5,23.2,00.0,33.3,26.3,09.5,0000.0,0000.75,0000.22,0000.15
2022-12-27 20:24:00,,0809.9,5.00,0.00,24.5,23.2,00.0,33.3,26.3,09.2,0000.0,0000.81,0000.25,0000.15
2022-12-27 20:25:00,,0809.7,5.00,0.00,24.5,23.2,00.0,33.3,26.3,09.1,0000.0,0000.87,0000.27,0000.16
2022-12-27 20:26:00,,0809.6,5.00,0.00,24.5,23.2,00.0,33.3,26.4,09.1,0000.0,0000.98,0000.31,0000.16
2022-12-27 20:27:00,,0809.7,5.00,0.00,24.5,23.2,00.0,33.3,26.3,09.4,0000.0,0001.21,0000.33,0000.16
2022-12-27 20:28:00,,0809.7,4.99,0.00,24.5,23.2,00.0,33.3,26.3,09.6,0000.0,0001.63,0000.35,0000.16
2022-12-27 20:29:00,,0809.6,4.99,0.00,24.5,23.2,00.0,33.4,26.3,09.7,0000.0,0001.65,0000.35,0000.16
2022-12-27 20:30:00,,0809.6,5.00,0.00,24.5,23.2,00.0,33.4,26.4,09.5,0000.0,0001.68,0000.36,0000.16
2022-12-27 20:31:00,,0809.9,5.00,0.00,24.6,23.2,00.0,33.4,26.4,09.7,0000.0,0001.39,0000.35,0000.16
2022-12-27 20:32:00,,0809.8,5.00,0.00,24.6,23.2,00.0,33.3,26.4,09.5,0000.0,0001.25,0000.35,0000.16
2022-12-27 20:33:00,,0809.9,5.00,0.00,24.5,23.2,00.0,33.4,26.4,09.6,0000.0,0001.26,0000.36,0000.17
2022-12-27 20:34:00,,0809.9,5.00,0.00,24.5,23.3,00.0,33.4,26.4,09.3,0000.0,0001.25,0000.35,0000.17
2022-12-27 20:35:00,,0809.9,5.00,0.00,24.5,23.2,00.0,33.4,26.3,09.1,0000.0,0001.53,0000.33,0000.16
2022-12-27 20:36:00,,0809.8,5.01,0.00,24.5,23.2,00.0,33.4,26.3,09.0,0000.0,0002.37,0000.31,0000.16
2022-12-27 20:37:00,,0809.7,5.00,0.00,24.5,23.3,00.0,33.4,26.3,09.3,0000.0,0004.19,0000.31,0000.16
2022-12-27 20:38:00,,0809.5,5.00,0.00,24.5,23.3,00.0,33.4,26.4,09.3,0000.0,0008.83,0000.40,0000.16
2022-12-27 20:39:00,,0809.5,5.00,0.00,24.5,23.3,00.0,33.4,26.4,09.2,0000.0,0008.64,0000.39,0000.17
2022-12-27 20:40:00,,0809.5,5.00,0.00,24.5,23.3,00.0,33.4,26.4,09.3,0000.0,0008.61,0000.38,0000.17
2022-12-27 20:41:00,,0809.4,5.00,0.00,24.5,23.2,00.0,33.4,26.4,09.7,0000.0,0008.61,0000.37,0000.17
2022-12-27 20:42:00,,0809.4,4.99,0.00,24.5,23.3,00.0,33.4,26.4,10.1,0000.0,0008.61,0000.38,0000.17
2022-12-27 20:43:00,,0809.3,5.00,0.00,24.6,23.2,00.0,33.4,26.4,10.3,0000.0,0008.63,0000.40,0000.17
2022-12-27 20:44:00,,0809.4,5.00,0.00,24.5,23.2,00.0,33.4,26.4,10.0,0000.0,0008.65,0000.41,0000.18
2022-12-27 20:45:00,,0809.5,5.00,0.00,24.5,23.3,00.0,33.4,26.4,10.4,0000.0,0008.65,0000.41,0000.19
2022-12-27 20:46:00,,0809.5,5.00,0.00,24.5,23.3,00.0,33.4,26.4,10.9,0000.0,0008.59,0000.44,0000.20
2022-12-27 20:47:00,,0809.5,5.00,0.00,24.5,23.3,00.0,33.4,26.3,11.4,0000.0,0008.13,0000.48,0000.21
2022-12-27 20:48:00,,0809.7,5.00,0.00,24.5,23.3,00.0,33.4,26.3,11.8,0000.0,0006.88,0000.49,0000.22
2022-12-27 20:49:00,,0809.7,5.00,0.00,24.6,23.3,00.0,33.4,26.4,12.3,0000.0,0001.01,0000.40,0000.23
2022-12-27 20:50:00,,0809.8,5.00,0.00,24.6,23.4,00.0,33.4,26.4,12.6,0000.0,0000.95,0000.42,0000.24
2022-12-27 20:51:00,,0809.9,5.00,0.00,24.6,23.4,00.0,33.4,26.4,12.5,0000.0,0001.01,0000.45,0000.25
2022-12-27 20:52:00,,0810.1,5.00,0.00,24.6,23.4,00.0,33.4,26.4,12.1,0000.0,0002.12,0000.48,0000.27
2022-12-27 20:53:00,,0810.2,5.00,0.00,24.6,23.4,00.0,33.4,26.4,10.9,0000.0,0002.64,0000.54,0000.28
2022-12-27 20:54:00,,0810.2,5.00,0.00,24.6,23.4,00.0,33.4,26.5,11.0,0000.0,0002.64,0000.54,0000.29
2022-12-27 20:55:00,,0810.2,4.99,0.00,24.6,23.5,00.0,33.5,26.5,10.6,0000.0,0002.73,0000.56,0000.30
2022-12-27 20:56:00,,0810.2,5.00,0.00,24.7,23.5,00.0,33.5,26.5,09.9,0000.0,0002.78,0000.58,0000.30
2022-12-27 20:57:00,,0810.1,5.00,0.00,24.7,23.5,00.0,33.5,26.5,09.1,0000.0,0002.72,0000.56,0000.30
2022-12-27 20:58:00,,0810.1,5.00,0.00,24.7,23.5,00.0,33.5,26.5,09.1,0000.0,0002.66,0000.55,0000.29
2022-12-27 20:59:00,,0810.0,5.00,0.00,24.7,23.5,00.0,33.5,26.6,09.3,0000.0,0002.61,0000.54,0000.28
